[[{"header":{"parameterUnit":"m.s-1","parameterCategory":1,"la1":30.2991,"la2":30.254,"lo1":-89.0895,"lo2":-89.0444,"dy":0.0017,"dx":0.0017,"nx":28,"ny":28,"refTime":"2025-06-23T03:00:00:Z","depth":0,"parameterNumber":2,"parameterNumberName":"U-component_of_WINDS"},"data":[0,0,0,0,0,0,0,0,0,0,0,0,0,0,0,0,0,0,0,0,0,0,0,0,0,0,0,0,0,0,0,0,0,0,0,0,0,0,0,0,0,0,0,0,0,0,0,0,0,0,0,0,0,0,0,0,0,0,-2.4466,-2.4466,0,-2.447,-2.447,-2.447,-2.4408,-2.4407,-2.4405,-2.4404,-2.4407,-2.4409,-2.441,0,0,0,0,0,0,0,0,0,0,0,0,0,-2.4403,-2.4405,-2.4466,-2.4466,-2.4466,-2.447,-2.447,-2.447,-2.4409,-2.4407,-2.4405,-2.4403,-2.4407,-2.4409,-2.4411,0,0,0,0,0,0,0,0,0,0,0,0,0,-2.4421,-2.4405,-2.4466,-2.4436,-2.4433,-2.447,-2.447,-2.447,-2.4409,-2.4407,-2.4404,-2.4402,-2.4406,-2.4408,-2.4411,-2.4477,0,0,-2.4418,-2.442,0,0,0,0,0,0,0,0,-2.442,-2.4424,-2.444,-2.4438,-2.4435,-2.4436,-2.4449,-2.4472,-2.441,-2.4418,-2.4403,-2.4401,-2.4419,-2.442,-2.4426,-2.4477,-2.4477,-2.4419,-2.442,-2.4421,-2.4422,0,0,0,0,0,0,0,-2.4419,-2.4423,-2.4467,-2.444,-2.4437,-2.4422,-2.4422,-2.4453,-2.4433,-2.4417,-2.4413,-2.4414,-2.4417,-2.4424,-2.4426,-2.4477,-2.4419,-2.4421,-2.4422,-2.4423,-2.458,-2.4582,0,0,0,0,0,0,-2.4422,-2.4423,-2.4467,-2.4468,-2.4421,-2.4425,-2.4425,-2.4438,-2.4432,-2.4429,-2.4416,-2.4411,-2.4421,-2.4423,-2.4426,-2.4501,-2.4421,-2.4424,-2.4425,-2.4577,-2.4581,-2.4583,0,0,0,0,0,0,-2.4421,-2.4427,-2.4467,-2.4444,-2.4448,-2.4429,-2.4445,-2.444,-2.4447,-2.4431,-2.4427,-2.4428,-2.4419,-2.4422,-2.4464,-2.45,-2.4425,-2.4427,-2.4574,-2.4578,-2.4582,-2.4653,0,0,0,0,0,0,-2.442,-2.4427,-2.4452,-2.4445,-2.4449,-2.4506,-2.4447,-2.4442,-2.4451,-2.4445,-2.4441,-2.4438,-2.4418,-2.4461,-2.4467,-2.4502,-2.4429,-2.4571,-2.4576,-2.4581,-2.4647,-2.4658,-2.4668,0,0,0,0,0,-2.4418,-2.4472,-2.4453,-2.4459,-2.448,-2.4508,-2.451,-2.4486,-2.4455,-2.4479,-2.4469,-2.4438,-2.4496,-2.4466,-2.4472,-2.4509,-2.4568,-2.4575,-2.458,-2.4642,-2.4656,-2.4668,0,0,0,0,0,0,-2.4483,-2.447,-2.445,-2.4503,-2.4507,-2.4498,-2.4528,-2.4502,-2.4515,-2.4508,-2.4478,-2.4477,-2.4524,-2.4521,-2.4487,-2.4571,-2.4526,-2.4534,-2.4571,-2.4585,-2.4595,-2.4594,-2.4431,0,0,0,0,0,-2.4504,-2.4528,-2.4515,-2.4564,-2.4567,-2.4547,-2.4558,-2.454,-2.4542,-2.4543,-2.4536,-2.454,-2.4559,-2.4572,-2.4588,-2.4647,-2.4644,-2.4675,-2.4686,-2.4695,-2.4701,-2.473,-2.4744,-2.4603,-2.4603,-2.4603,0,0,-2.4547,-2.4543,-2.456,-2.4577,-2.4577,-2.4602,-2.4549,-2.4578,-2.4595,-2.4548,-2.4586,-2.4582,-2.4583,-2.4633,-2.4655,-2.4632,-2.474,-2.4703,-2.471,-2.4711,-2.4738,-2.4751,-2.4763,-2.4607,-2.4606,-2.4606,0,0,-2.4637,-2.4637,-2.4677,-2.4679,-2.4681,-2.4667,-2.4677,-2.4671,-2.4666,-2.4704,-2.4669,-2.469,-2.4723,-2.4726,-2.4731,-2.4823,-2.4794,-2.4829,-2.4885,-2.4914,-2.4925,-2.4934,-2.4965,-2.4977,-2.4836,-2.4836,-2.4836,0,-2.469,-2.4726,-2.47,-2.4731,-2.4739,-2.4698,-2.4737,-2.474,-2.4747,-2.4754,-2.4728,-2.4769,-2.4767,-2.4816,-2.4839,-2.4846,-2.4855,-2.4829,-2.4925,-2.4935,-2.4943,-2.4972,-2.4984,-2.484,-2.484,-2.4839,-2.4839,0,-2.479,-2.4816,-2.4848,-2.4855,-2.4867,-2.4902,-2.4881,-2.4897,-2.4877,-2.4866,-2.4905,-2.4902,-2.4917,-2.4928,-2.4909,-2.4974,-2.496,-2.4931,-2.4884,-2.4961,-2.4988,-2.4999,-2.4846,-2.4845,-2.4844,-2.4843,0,0,-2.4921,-2.4914,-2.4926,-2.4928,-2.4927,-2.4947,-2.498,-2.4994,-2.5007,-2.5014,-2.504,-2.5069,-2.5042,-2.5049,-2.503,-2.5056,-2.5126,-2.5023,-2.5022,-2.504,-2.5196,-2.5217,-2.523,-2.5108,-2.511,-2.5112,-2.5195,0,-2.5007,-2.5063,-2.504,-2.5098,-2.512,-2.5081,-2.511,-2.5112,-2.5104,-2.5121,-2.5111,-2.5132,-2.5095,-2.5099,-2.5123,-2.5113,-2.5157,-2.5107,-2.5131,-2.5132,-2.5129,-2.5245,-2.5267,-2.5346,-2.5206,-2.5208,-2.5209,0,-2.5115,-2.5126,-2.5185,-2.5179,-2.5188,-2.5214,-2.5225,-2.5243,-2.5245,-2.5237,-2.5244,-2.522,-2.5251,-2.5207,-2.5249,-2.5215,-2.5224,-2.5221,-2.5224,-2.5223,-2.5174,-2.5246,-2.5371,-2.5382,-2.5226,-2.5224,-2.5223,0,-2.5202,-2.5231,-2.527,-2.5274,-2.5269,-2.5288,-2.5287,-2.5286,-2.5296,-2.5306,-2.5312,-2.5326,-2.5332,-2.5343,-2.5323,-2.5293,-2.5368,-2.5322,-2.5361,-2.5361,-2.5376,-2.5375,-2.5503,-2.5386,-2.5386,-2.5385,-2.5385,0,-2.5299,-2.5337,-2.5309,-2.5333,-2.5374,-2.5348,-2.5389,-2.5383,-2.5383,-2.5405,-2.5373,-2.5394,-2.5367,-2.5385,-2.537,-2.5406,-2.541,-2.5403,-2.5398,-2.5405,-2.5406,-2.5409,-2.5402,-2.5389,-2.5388,-2.5387,-2.5387,0,-2.5402,-2.5386,-2.5425,-2.5417,-2.5416,-2.5446,-2.5439,-2.5461,-2.545,-2.5478,-2.5483,-2.5466,-2.5485,-2.5467,-2.5486,-2.5475,-2.5524,-2.5512,-2.5523,-2.5519,-2.5558,-2.5554,-2.569,-2.5706,-2.5581,-2.5582,-2.5583,0,-2.5465,-2.5493,-2.5488,-2.55,-2.55,-2.5521,-2.553,-2.5506,-2.5518,-2.5522,-2.5543,-2.556,-2.5572,-2.5606,-2.5595,-2.5609,-2.5596,-2.5643,-2.5598,-2.5603,-2.5595,-2.5592,-2.5594,-2.5651,-2.5653,-2.5654,-2.5655,0,-2.5577,-2.5567,-2.5582,-2.5595,-2.5607,-2.5616,-2.5622,-2.5634,-2.5609,-2.5624,-2.5644,-2.5653,-2.5673,-2.569,-2.5701,-2.5699,-2.5673,-2.567,-2.5679,-2.5685,-2.569,-2.5686,-2.5546,-2.5666,-2.5665,-2.5664,-2.5664,-2.5663,-2.566,-2.5682,-2.5682,-2.57,-2.5702,-2.5709,-2.5728,-2.572,-2.5736,-2.5749,-2.5734,-2.5758,-2.5759,-2.5771,-2.5772,-2.579,-2.5771,-2.5785,-2.5788,-2.5791,-2.5796,-2.5689,-2.5793,-2.5792,-2.5792,-2.5792,-2.5791,0,-2.5769,-2.5766,-2.5783,-2.5793,-2.5807,-2.5782,-2.5787,-2.58,-2.5822,-2.5825,-2.5838,-2.586,-2.5876,-2.5867,-2.5881,-2.5897,-2.5886,-2.5902,-2.5899,-2.5899,-2.5814,-2.5803,-2.5911,-2.5911,-2.5911,-2.5911,-2.5911,-2.5911,-2.5827,-2.5863,-2.5853,-2.589,-2.5887,-2.591,-2.5915,-2.5921,-2.5923,-2.5949,-2.5963,-2.5957,-2.5954,-2.5968,-2.5982,-2.5978,-2.5984,-2.6004,-2.5997,-2.5917,-2.5905,-2.5894,-2.5884,-2.6006,-2.6007,-2.608,-2.6081,-2.6081]},{"header":{"parameterUnit":"m.s-1","parameterCategory":1,"la1":30.2991,"la2":30.254,"lo1":-89.0895,"lo2":-89.0444,"dy":0.0017,"dx":0.0017,"nx":28,"ny":28,"refTime":"2025-06-23T03:00:00:Z","depth":0,"parameterNumber":3,"parameterNumberName":"V-component_of_WINDS"},"data":[0,0,0,0,0,0,0,0,0,0,0,0,0,0,0,0,0,0,0,0,0,0,0,0,0,0,0,0,0,0,0,0,0,0,0,0,0,0,0,0,0,0,0,0,0,0,0,0,0,0,0,0,0,0,0,0,0,0,0.9603,0.9604,0,0.9713,0.9714,0.9715,0.9689,0.9687,0.9685,0.9683,0.9794,0.9798,0.9803,0,0,0,0,0,0,0,0,0,0,0,0,0,0.937,0.9374,0.9603,0.9604,0.9606,0.9712,0.9714,0.9715,0.9689,0.9687,0.9684,0.9682,0.9792,0.9798,0.9804,0,0,0,0,0,0,0,0,0,0,0,0,0,0.9474,0.9375,0.9603,0.9605,0.9607,0.9712,0.9714,0.9716,0.969,0.9687,0.9683,0.9681,0.979,0.9797,0.9804,0.9913,0,0,0.9827,0.983,0,0,0,0,0,0,0,0,0.9468,0.9483,0.9604,0.9605,0.9607,0.9684,0.9672,0.9782,0.9691,0.9658,0.9683,0.9679,0.976,0.9769,0.9797,0.9918,0.9923,0.9828,0.9832,0.9835,0.9837,0,0,0,0,0,0,0,0.9461,0.9478,0.9646,0.9605,0.9608,0.9601,0.9612,0.9693,0.9725,0.9661,0.9659,0.9673,0.976,0.979,0.9799,0.9925,0.9827,0.9834,0.9839,0.9841,1.0141,1.0144,0,0,0,0,0,0,0.9453,0.9472,0.9643,0.9649,0.9529,0.9608,0.962,0.9662,0.9724,0.9731,0.9675,0.9671,0.9779,0.979,0.9803,0.9934,0.9835,0.9842,0.9846,1.0137,1.0142,1.0145,0,0,0,0,0,0,0.9448,0.9468,0.9638,0.956,0.9582,0.9615,0.9662,0.9666,0.9696,0.9735,0.9741,0.97,0.9777,0.9792,0.9886,0.9938,0.9845,0.9852,1.0133,1.0139,1.0144,1.0197,0,0,0,0,0,0,0.9441,0.9466,0.9508,0.9562,0.9586,0.972,0.9666,0.9671,0.9709,0.9704,0.976,0.9766,0.9775,0.9875,0.9893,0.9946,0.9858,1.0129,1.0136,1.0142,1.0191,1.0204,1.0215,0,0,0,0,0,0.9433,0.9519,0.9511,0.9531,0.9639,0.9723,0.9737,0.9747,0.9713,0.9755,0.9781,0.9764,0.9929,0.9885,0.9905,0.9961,1.0125,1.0134,1.0141,1.0186,1.0201,1.0215,0,0,0,0,0,0,0.947,0.9526,0.9517,0.9623,0.9669,0.9719,0.9772,0.9763,0.9818,0.9812,0.9821,0.9834,0.9929,0.9954,0.9904,1.0069,1.0022,1.0035,1.0049,1.0064,1.0076,1.0068,0.9864,0,0,0,0,0,0.9491,0.9555,0.96,0.9689,0.9712,0.9739,0.9775,0.9779,0.9826,0.9845,0.9877,0.9923,0.9986,1.0026,1.0086,1.0195,1.0206,1.0243,1.0255,1.0264,1.0275,1.0334,1.0351,1.0172,1.0172,1.0171,0,0,0.9534,0.9572,0.9612,0.9698,0.9733,0.9799,0.9755,0.9826,0.9875,0.9856,0.9946,0.9972,1.0024,1.0125,1.0172,1.0149,1.0327,1.0275,1.0282,1.0287,1.0344,1.0361,1.0376,1.0177,1.0176,1.0175,0,0,0.9646,0.9682,0.976,0.9797,0.9852,0.9869,0.9887,0.9939,0.9955,1.0046,1.0033,1.0091,1.0198,1.0236,1.0269,1.0396,1.0383,1.0415,1.0477,1.0534,1.0548,1.0561,1.0606,1.0622,1.0425,1.0425,1.0426,0,0.9693,0.9792,0.9801,0.9874,0.9912,0.9899,0.9978,1.0013,1.0084,1.011,1.0084,1.0218,1.0252,1.0363,1.0394,1.0421,1.0442,1.0409,1.0546,1.0558,1.057,1.0613,1.063,1.0429,1.0429,1.0428,1.0428,0,0.9847,0.9916,0.9972,1.0042,1.0086,1.0162,1.0182,1.0226,1.0225,1.0245,1.0337,1.0378,1.0445,1.0472,1.0472,1.0582,1.0567,1.0543,1.0496,1.0591,1.0631,1.0648,1.0434,1.0433,1.0432,1.0431,0,0,0.9985,1.006,1.008,1.0112,1.0171,1.0225,1.0299,1.0366,1.0403,1.0453,1.0515,1.0606,1.0585,1.0623,1.0627,1.0678,1.0776,1.0648,1.065,1.067,1.09,1.0917,1.0936,1.0768,1.0771,1.0773,1.0895,0,1.0103,1.0235,1.0246,1.0365,1.0429,1.0417,1.0482,1.0526,1.0546,1.0602,1.0624,1.0689,1.0656,1.0679,1.0728,1.0753,1.0822,1.0745,1.0826,1.0828,1.0813,1.0957,1.0975,1.1088,1.0911,1.0914,1.0916,0,1.0258,1.0313,1.0438,1.0489,1.0516,1.0575,1.0637,1.0691,1.074,1.0751,1.0793,1.0791,1.0867,1.0818,1.0923,1.087,1.0904,1.0921,1.0926,1.0934,1.0878,1.0968,1.1125,1.1142,1.0941,1.0939,1.0937,0,1.0346,1.0451,1.054,1.0568,1.0629,1.0671,1.0698,1.0744,1.0783,1.0837,1.0863,1.0924,1.0958,1.1006,1.102,1.0983,1.1125,1.1076,1.1136,1.1136,1.1166,1.1164,1.133,1.1188,1.1188,1.1188,1.1187,0,1.0476,1.0554,1.0581,1.0636,1.0722,1.0733,1.0818,1.0843,1.0884,1.0943,1.0936,1.0991,1.1007,1.1065,1.1076,1.1161,1.1177,1.1187,1.119,1.1188,1.1187,1.121,1.1202,1.1192,1.1191,1.119,1.1189,0,1.059,1.0611,1.0707,1.0758,1.0772,1.0834,1.0877,1.0929,1.0948,1.1023,1.1041,1.1071,1.1139,1.1158,1.1239,1.1247,1.1347,1.1342,1.1331,1.1331,1.1389,1.1383,1.1576,1.1601,1.1443,1.1444,1.1446,0,1.0671,1.073,1.0788,1.0827,1.0856,1.092,1.096,1.0973,1.1015,1.1076,1.1121,1.1188,1.1242,1.1351,1.138,1.1442,1.1438,1.1501,1.1447,1.1444,1.1439,1.1435,1.1441,1.1511,1.1513,1.1514,1.1515,0,1.0814,1.0821,1.088,1.0943,1.0991,1.1041,1.1088,1.1121,1.1141,1.1188,1.1258,1.13,1.1384,1.145,1.1513,1.1541,1.1532,1.1532,1.1549,1.1548,1.1539,1.1545,1.1358,1.1528,1.1526,1.1526,1.1525,1.1524,1.0913,1.0966,1.1014,1.108,1.1117,1.1162,1.1214,1.124,1.1298,1.1367,1.1372,1.1447,1.1494,1.1578,1.1609,1.1668,1.1649,1.1673,1.168,1.1685,1.169,1.153,1.1679,1.1679,1.1678,1.1678,1.1678,0,1.1055,1.1086,1.1146,1.1214,1.1265,1.1253,1.1305,1.1349,1.1415,1.146,1.1514,1.1594,1.1659,1.1693,1.1757,1.1797,1.1795,1.1814,1.1811,1.1817,1.1704,1.1682,1.1815,1.1815,1.1815,1.1815,1.1815,1.1815,1.1135,1.1223,1.1237,1.1343,1.1373,1.1447,1.1478,1.1519,1.1555,1.1645,1.1699,1.1721,1.1761,1.1828,1.1887,1.1895,1.1919,1.194,1.1946,1.1839,1.1825,1.1812,1.1792,1.1945,1.1945,1.2055,1.2056,1.2057]}]]